Theta_e
319 318 319 319 318 317 318 320 323 321 320 320 319 319 317 316 316 316 317 318 316 318 317 319 327 330 326 327 329 328 329 332 333 330 332 331 331 332 330 330 331 332 331 330 327 327 328 330 332 334 331 324 322 321 318 315 311 311 310 308 312 321 328 326 325 327 328 328 327 330 332 332 332 331 331 330 330 329 327 323 320 318 317 316 314 313 313 312 310 311 311 310 311 311 311 311 312
317 318 318 317 317 318 320 321 327 326 321 317 318 319 316 314 315 318 321 319 319 318 316 321 329 329 324 325 326 325 329 330 326 327 330 331 332 330 329 329 331 332 331 328 326 326 327 330 333 335 332 323 321 321 319 315 311 312 309 309 312 319 328 327 325 326 326 327 328 331 332 331 330 329 329 329 328 326 324 320 316 315 314 313 313 317 318 315 311 310 311 310 311 311 311 311 311
316 317 318 317 318 319 322 322 325 327 321 319 322 319 314 315 319 321 320 317 318 318 320 325 328 326 323 323 324 324 328 329 327 330 331 331 331 329 328 329 331 332 331 329 327 327 330 333 334 335 332 324 321 321 319 316 312 313 310 309 310 320 327 326 325 325 324 327 327 329 330 330 329 328 327 327 324 322 320 316 314 313 313 313 314 319 322 321 316 311 310 311 311 311 311 311 311
316 317 318 316 318 322 329 329 327 326 321 320 322 320 318 321 321 317 315 318 319 320 321 324 326 325 323 323 324 325 327 327 328 331 331 332 331 330 328 329 331 332 333 331 329 331 333 334 334 334 332 325 322 321 319 316 313 313 312 310 309 319 326 324 325 325 324 325 326 328 329 330 329 325 323 323 320 318 316 313 313 312 312 313 317 322 322 322 320 313 310 310 310 311 311 311 311
316 317 317 316 319 323 328 325 323 324 321 322 320 318 321 324 319 312 315 321 320 319 319 323 326 325 325 324 324 326 327 326 328 330 330 332 331 330 329 329 331 332 333 332 332 334 335 335 334 334 332 327 322 321 319 317 314 313 312 311 309 313 318 318 321 324 325 326 328 329 329 329 326 323 320 319 318 316 314 311 311 312 312 315 320 322 321 321 320 317 314 312 311 311 311 311 311
316 317 318 318 319 319 322 319 319 324 322 321 319 318 320 318 314 313 318 322 319 318 318 322 325 325 327 326 325 326 328 328 328 330 330 331 331 330 329 330 331 332 333 332 333 334 335 334 332 334 333 326 322 321 319 317 315 313 312 312 311 309 311 314 319 324 325 325 326 327 328 328 326 323 318 315 313 312 311 309 311 314 314 317 321 322 323 322 320 320 320 317 313 311 312 312 312
316 317 319 320 318 317 324 323 324 326 316 314 315 317 317 311 312 317 319 321 321 318 317 321 324 324 325 326 329 330 331 331 329 330 331 331 332 330 330 329 330 331 333 333 333 334 335 333 332 334 332 325 322 322 320 318 316 313 312 312 312 310 309 311 317 321 321 319 319 321 323 325 324 320 316 313 309 309 309 309 312 314 313 315 317 319 322 322 319 318 316 314 312 310 311 312 313
316 318 320 324 322 320 327 324 324 324 313 309 311 314 314 311 314 318 317 319 320 316 316 321 322 322 323 324 329 332 332 331 330 330 331 331 331 331 330 329 328 330 333 332 333 334 334 333 333 334 331 325 322 322 320 318 317 315 313 312 312 312 311 310 312 314 313 313 313 314 316 318 319 316 315 314 309 308 308 310 314 312 311 313 313 315 319 319 317 316 312 309 309 309 310 311 312
316 319 318 323 325 322 327 321 317 317 315 314 311 312 314 312 316 318 316 315 315 314 317 322 319 318 322 324 328 331 331 332 331 330 331 331 330 330 330 329 328 330 332 331 332 333 333 333 333 333 329 324 323 322 320 318 317 316 313 312 312 312 312 311 311 311 311 312 311 312 312 313 313 313 316 316 311 310 308 311 315 312 310 311 312 313 316 318 317 314 310 308 308 308 309 310 311
316 320 316 322 327 321 321 318 316 317 316 315 311 313 314 313 316 317 316 314 313 315 318 321 318 318 323 325 327 329 331 331 330 330 331 330 330 330 330 329 328 328 330 331 332 332 332 332 332 331 327 324 323 322 321 318 317 317 314 312 312 312 312 312 311 311 311 311 311 311 311 311 310 311 314 314 314 312 309 311 314 311 310 311 311 313 315 317 317 313 308 308 309 310 311 311 312
318 319 317 323 327 319 319 319 320 322 319 314 311 313 315 314 315 315 313 313 313 316 320 320 318 320 323 325 326 327 330 331 329 330 330 330 330 330 330 329 328 328 329 331 331 331 331 331 331 330 327 324 323 322 322 319 318 317 314 312 312 312 312 312 312 312 312 312 311 311 311 311 311 312 312 312 313 313 310 311 312 310 310 310 311 313 316 318 318 314 310 310 311 311 312 312 313
317 320 326 331 326 320 322 321 320 327 326 319 315 314 315 315 316 314 313 313 314 316 319 319 318 320 322 324 325 326 329 330 329 330 330 331 331 330 330 329 329 328 330 331 331 331 331 330 330 329 327 325 323 322 322 320 319 318 316 315 314 313 312 312 312 312 312 312 312 311 311 311 311 311 311 310 311 311 311 312 312 310 309 309 309 311 314 315 315 313 312 312 312 312 312 313 314
317 320 331 327 319 320 321 320 319 325 327 319 314 314 315 315 316 315 313 313 313 315 318 319 318 319 323 323 323 326 329 329 329 330 330 331 331 330 330 330 330 330 330 330 330 331 331 330 328 327 326 324 323 323 322 322 320 319 319 317 315 314 313 313 313 313 313 313 313 312 311 310 309 309 309 309 309 309 310 310 310 309 308 308 307 308 310 311 312 313 313 314 314 313 313 313 313
318 320 328 322 314 320 320 319 319 321 322 318 313 313 316 316 316 315 313 314 314 315 317 318 319 318 320 320 321 325 328 328 329 331 331 331 331 329 330 331 330 330 330 330 330 331 331 330 327 326 325 324 324 323 323 323 321 320 320 319 317 315 314 314 314 314 314 314 313 313 311 310 309 308 308 307 307 308 308 308 308 308 307 306 306 308 310 312 313 315 316 316 315 315 314 313 313
320 316 325 326 317 318 318 317 321 323 321 317 314 313 315 315 315 315 313 315 315 315 316 317 319 318 318 318 319 323 326 328 329 331 331 332 331 329 330 330 330 330 330 330 330 331 330 330 327 326 325 325 324 324 324 323 322 321 321 320 319 318 317 316 315 315 314 315 315 314 313 311 310 309 308 307 307 306 307 307 307 307 306 306 308 311 313 314 316 317 318 317 316 315 314 314 313
321 316 324 327 318 319 317 315 319 323 320 313 312 313 315 315 315 314 313 314 314 314 316 318 319 318 318 317 318 320 324 328 330 332 332 332 331 330 330 330 330 330 331 331 331 331 331 329 328 327 326 326 324 324 324 324 323 322 322 321 320 319 319 318 317 316 315 315 315 315 314 313 311 310 309 307 306 306 306 306 306 305 306 309 311 313 316 318 319 319 319 319 318 317 316 314 313
319 321 329 325 319 320 318 317 318 320 321 312 309 313 315 315 313 313 314 314 314 314 316 318 318 317 317 318 318 319 322 327 331 332 333 332 332 331 330 330 330 330 331 331 332 331 331 330 329 328 328 327 325 325 325 325 323 323 322 322 322 321 320 320 319 318 317 317 317 316 316 315 314 312 310 309 307 306 306 306 306 306 308 311 313 316 319 320 320 320 320 320 320 319 318 316 315
320 330 331 321 320 321 318 320 316 316 320 312 310 313 315 316 313 313 314 314 314 314 316 317 319 318 318 318 318 318 320 325 329 330 332 333 332 331 330 330 330 330 330 331 331 332 331 331 330 329 329 328 327 326 325 325 324 324 323 322 322 322 321 321 321 320 319 319 320 319 318 316 315 315 313 311 309 308 308 308 308 309 311 314 316 319 320 320 320 320 320 320 320 320 319 318 316
321 328 326 324 326 319 313 315 311 313 315 311 311 312 314 315 313 313 315 314 313 314 316 316 317 318 318 318 318 318 318 322 325 325 329 331 331 331 330 329 329 329 330 330 330 331 331 331 330 330 329 329 328 327 326 326 325 325 324 324 323 323 323 322 322 321 321 321 321 321 320 318 317 317 316 314 312 311 311 311 312 313 314 316 318 320 320 320 320 321 321 321 321 321 320 319 318
316 321 326 328 323 314 311 312 311 313 313 310 311 311 313 313 313 314 314 313 313 314 315 315 315 317 317 317 317 318 317 319 322 322 324 328 330 330 329 328 328 329 329 329 330 330 331 330 330 330 330 329 329 328 327 326 326 326 325 324 324 324 324 323 323 322 322 322 321 321 322 321 319 318 318 317 316 315 314 314 315 316 316 317 318 319 320 320 321 321 321 321 321 321 321 320 319
315 319 328 322 312 313 313 312 312 312 312 312 311 311 312 312 313 313 313 314 315 314 315 315 315 315 316 316 318 319 317 317 319 320 322 326 328 329 329 328 327 328 328 329 330 330 330 331 330 330 330 330 329 329 329 328 327 327 326 325 325 325 324 324 324 323 323 323 323 322 322 322 322 321 320 318 318 318 317 317 317 317 318 318 319 319 320 320 320 320 321 321 321 322 322 321 320
315 314 317 313 309 314 313 311 313 312 312 312 311 312 313 313 313 313 313 315 317 315 314 315 315 315 315 315 317 318 317 316 316 317 319 322 325 326 327 328 327 327 328 328 328 329 330 330 330 330 330 330 330 329 329 329 328 328 327 327 326 326 326 325 325 325 324 324 324 324 323 323 323 323 322 320 319 319 319 319 319 319 319 319 319 319 320 320 320 320 321 321 321 322 322 322 321
319 314 310 310 310 313 312 311 313 311 312 312 311 313 313 312 312 312 313 314 315 314 314 315 315 315 315 315 316 317 316 316 315 315 315 317 320 321 323 325 326 326 326 327 327 329 329 329 330 329 329 329 329 330 329 329 329 329 329 328 328 327 327 327 327 326 325 325 325 325 324 324 324 324 324 323 321 319 319 320 319 319 319 320 319 319 320 320 320 320 320 321 321 321 322 322 321
319 317 310 311 311 311 312 312 311 311 313 312 312 313 312 313 313 311 312 314 314 314 314 314 314 315 315 315 315 316 316 316 316 315 315 315 316 318 321 323 324 325 324 325 326 327 328 328 328 328 328 328 328 329 329 330 330 330 329 329 329 329 328 328 328 327 326 326 326 326 325 325 325 324 325 324 323 321 320 320 320 320 320 320 320 320 320 320 320 320 320 320 321 321 321 322 321
317 317 311 311 311 311 311 311 311 311 312 312 313 312 311 312 312 311 313 314 314 314 314 314 314 314 315 315 315 315 315 316 316 316 316 316 316 317 319 321 322 323 323 323 325 325 326 326 327 327 327 327 328 328 329 330 330 330 330 330 330 330 330 329 329 328 328 328 327 327 326 326 326 326 325 325 325 323 322 321 321 321 321 321 321 321 321 321 320 320 320 320 321 321 321 322 322
314 314 311 311 311 311 311 311 311 311 312 312 312 311 311 311 311 312 313 314 314 314 314 314 314 314 315 315 314 315 315 316 316 316 317 317 317 318 318 319 320 320 320 321 323 323 324 324 325 325 326 327 327 328 328 329 329 330 330 329 330 330 330 330 330 330 329 329 329 328 328 327 327 326 326 326 326 325 324 323 323 323 323 322 322 321 321 321 321 321 321 321 321 321 321 322 322
313 311 311 311 311 311 312 312 312 312 312 311 313 312 311 311 312 314 314 313 314 314 314 314 314 314 315 315 314 315 314 315 316 316 317 317 317 316 316 317 317 317 318 319 320 321 322 323 323 323 324 325 326 327 328 328 329 329 329 329 329 329 330 331 330 330 330 330 330 329 329 329 328 327 327 327 327 326 326 325 324 325 324 324 323 323 323 322 322 322 321 321 321 321 321 322 322
312 312 313 311 310 312 311 312 312 312 313 312 313 312 310 311 313 315 313 313 314 314 315 314 314 314 314 315 314 314 315 315 316 316 316 316 316 315 316 316 315 316 317 317 318 319 320 320 322 322 323 324 324 325 326 326 327 327 328 328 328 328 329 330 330 331 331 331 331 330 330 330 330 329 328 328 328 328 327 326 326 326 326 326 325 324 324 323 323 322 322 322 322 322 322 322 322
312 313 316 315 314 314 311 311 311 312 313 312 311 312 313 313 314 315 313 313 314 314 314 314 314 314 314 315 314 314 315 315 316 316 315 315 315 315 316 316 316 316 316 317 317 318 318 318 320 321 321 322 323 323 324 325 325 325 326 327 327 327 328 328 329 330 331 331 331 331 331 331 331 330 330 329 329 329 328 328 327 327 327 326 326 326 325 325 324 323 323 323 322 322 321 322 321
313 311 315 317 317 316 310 310 312 311 313 311 310 312 317 316 311 312 313 313 314 314 314 314 314 314 314 315 315 315 315 315 316 315 315 315 315 315 315 316 316 316 316 317 317 317 317 318 318 319 320 320 321 322 322 323 323 323 324 325 326 326 327 327 327 329 330 330 331 331 331 331 331 331 331 330 330 329 329 329 328 328 328 327 327 327 326 326 325 324 324 323 323 322 322 322 322
315 310 315 319 316 317 312 308 311 312 312 311 310 313 317 317 311 309 312 312 313 314 314 314 314 314 315 314 314 315 315 315 315 315 315 315 315 316 315 316 316 315 316 316 316 316 317 317 317 318 318 319 320 320 320 321 322 322 322 322 323 324 325 326 326 327 328 329 330 331 332 331 331 331 331 331 330 330 329 329 328 328 328 327 327 326 326 325 324 324 324 323 323 322 322 322 322
318 311 318 317 313 317 315 308 309 313 312 310 311 314 317 316 311 310 312 312 313 313 313 314 314 314 314 315 314 315 315 315 315 315 315 315 316 316 316 316 316 315 315 316 316 316 316 316 316 317 317 318 318 318 319 319 320 320 320 321 321 322 322 322 323 323 325 326 327 329 331 331 332 331 330 330 330 330 329 329 328 328 327 326 326 326 325 325 324 324 323 323 322 322 321 321 321
319 315 320 317 313 316 314 310 307 309 311 311 311 314 318 316 311 311 312 313 313 313 314 314 314 315 314 314 315 314 315 315 315 315 315 315 315 315 315 316 316 316 315 316 316 315 316 315 315 316 316 316 317 317 318 318 318 319 319 319 319 320 320 319 319 320 320 321 322 324 326 329 330 331 330 330 329 329 329 329 328 327 326 327 327 327 327 325 324 323 323 322 322 322 321 320 320
317 317 319 316 315 315 313 314 309 306 311 313 312 313 318 316 310 312 313 312 313 313 314 315 315 315 315 315 314 314 315 314 315 315 315 315 315 315 315 315 315 316 315 316 315 315 315 315 315 315 315 315 316 316 316 317 318 318 318 319 319 319 319 319 319 319 318 318 318 318 320 322 325 327 328 328 328 328 328 328 327 326 326 326 326 325 325 324 324 323 322 322 322 321 321 321 320
316 318 316 313 314 313 313 317 311 309 313 314 315 314 317 317 311 312 313 312 313 314 314 315 315 316 316 316 315 315 315 315 315 315 315 315 315 315 315 316 315 315 315 315 316 315 315 315 315 315 315 315 315 315 316 316 316 317 317 318 318 318 318 318 318 317 317 317 317 318 319 320 320 321 323 326 326 325 326 327 326 326 326 326 326 325 323 323 325 325 323 322 322 322 322 322 321
319 319 319 320 320 316 314 316 309 308 314 316 317 317 317 318 315 313 313 312 312 313 315 315 315 316 316 316 316 316 316 316 316 315 315 315 315 315 315 315 315 315 315 315 315 315 315 315 315 315 315 315 315 315 315 315 316 316 316 316 316 316 316 316 316 316 316 316 316 317 318 318 318 319 321 324 323 323 327 328 324 324 324 324 324 325 324 325 327 328 326 324 323 323 323 323 323
318 318 321 322 321 318 314 315 309 305 314 318 317 319 317 317 317 313 312 311 309 312 313 315 316 316 316 316 316 316 316 316 316 315 316 316 316 316 316 316 316 316 316 316 316 316 316 316 315 316 315 315 315 315 315 315 315 315 315 315 315 315 315 315 316 316 316 317 318 319 319 320 322 323 323 325 324 322 324 325 324 326 326 323 323 324 324 326 328 326 325 325 323 323 323 323 323
318 317 320 318 318 319 314 314 312 306 312 318 315 319 318 318 318 312 310 310 309 311 311 312 314 314 314 315 315 315 315 315 315 315 315 315 316 316 316 316 316 316 316 315 316 316 316 316 315 316 316 316 316 315 315 315 315 315 315 315 315 315 315 316 316 317 318 319 320 320 322 324 327 328 328 330 330 326 322 323 325 326 325 325 327 327 323 323 325 322 321 324 325 325 325 324 323
321 317 317 318 317 318 313 312 313 308 312 319 318 319 318 317 317 312 307 308 309 310 310 310 311 312 312 313 313 313 313 314 314 314 314 314 315 315 314 315 315 314 315 315 315 315 316 316 316 316 316 316 316 316 315 316 316 316 316 316 316 316 316 317 317 318 319 320 321 322 323 324 326 328 328 328 328 324 321 325 327 325 325 325 327 327 322 322 325 323 321 322 323 324 325 324 322
321 318 318 318 316 318 317 314 313 311 311 316 317 317 317 317 319 315 305 304 308 307 308 309 309 310 310 311 311 312 313 313 313 313 313 314 314 314 314 314 314 314 314 314 314 315 315 315 316 316 316 316 316 316 316 315 316 315 316 316 317 317 317 318 318 318 319 319 320 322 322 323 323 323 323 324 324 321 322 327 329 327 327 328 329 329 325 324 326 327 323 320 322 324 324 323 320
317 322 327 324 319 319 318 314 314 313 310 311 314 316 322 323 325 322 309 304 307 307 309 311 310 311 312 312 312 312 313 312 312 313 313 314 314 314 314 314 314 314 314 313 314 314 315 315 316 316 316 316 316 316 316 315 315 316 316 316 317 318 318 318 318 318 318 318 318 319 320 321 322 322 323 324 324 324 326 329 328 325 325 327 330 331 328 325 326 326 323 322 324 324 325 323 319
315 322 329 326 324 322 317 315 317 318 314 310 310 315 326 329 327 324 315 312 312 308 308 311 312 314 314 314 313 312 313 313 313 314 315 315 315 315 315 315 314 314 314 314 313 314 314 315 315 316 316 316 316 316 316 315 315 316 316 317 317 317 318 317 317 317 318 318 319 320 321 322 323 323 324 324 324 324 325 326 326 326 327 328 327 327 327 326 325 324 322 325 327 325 323 322 319
316 316 318 320 324 324 320 318 317 319 315 308 308 315 321 323 324 322 316 317 317 310 308 310 312 314 314 314 314 313 315 315 315 316 316 316 316 315 315 315 315 314 314 314 314 314 314 315 315 315 316 316 316 316 315 315 315 315 316 316 317 317 317 317 317 319 320 320 321 321 322 322 323 324 324 324 324 324 324 324 325 327 328 327 327 326 325 323 322 324 325 325 325 323 322 321 321
316 313 314 320 323 323 323 322 320 320 314 311 315 317 315 317 321 320 313 314 316 314 311 310 310 312 313 314 315 315 315 316 316 316 316 316 316 316 316 316 315 315 315 315 315 315 314 315 315 315 315 315 316 315 315 315 315 316 316 316 316 317 317 317 318 320 320 321 321 321 321 321 322 323 323 323 324 324 325 325 325 325 325 325 327 328 326 323 321 324 325 323 323 323 322 322 322
316 309 312 318 320 323 327 326 325 319 312 316 320 313 312 320 323 320 314 312 314 314 313 311 309 311 313 313 314 315 315 315 316 316 316 316 316 316 316 317 316 316 316 316 316 316 316 316 316 316 316 316 316 316 316 316 316 316 316 316 316 317 317 318 318 319 319 320 319 319 319 319 319 320 320 321 322 323 324 324 324 325 325 325 326 326 326 325 325 324 324 324 325 326 326 325 323
311 305 310 314 316 321 323 323 323 319 316 322 319 309 311 319 325 324 315 311 314 313 312 311 309 310 312 313 314 314 315 315 315 316 316 316 316 316 316 317 317 317 317 317 317 317 317 316 317 317 317 316 316 316 316 316 316 316 316 316 316 316 316 316 317 316 317 317 317 316 316 316 317 317 318 318 319 320 321 322 323 323 323 324 324 324 324 324 325 325 325 325 324 323 323 323 323
306 310 315 315 319 323 322 321 319 317 321 323 313 308 310 313 322 325 314 311 315 314 313 311 309 311 311 312 313 313 314 314 315 315 315 316 316 316 316 316 316 316 316 316 316 316 316 316 316 316 316 316 315 315 315 315 315 315 315 315 315 315 315 315 315 315 315 315 314 314 314 314 315 315 315 315 315 316 317 317 318 319 320 321 321 322 323 324 325 325 325 326 326 325 324 325 324
310 321 321 316 321 323 322 324 318 316 325 320 309 308 311 311 318 318 312 313 314 313 314 312 310 310 311 312 313 312 313 313 314 314 314 315 315 315 316 316 315 316 316 315 315 315 315 315 315 315 315 315 315 315 315 315 315 315 315 315 315 315 315 315 315 315 314 314 314 314 314 314 313 313 313 313 313 314 314 315 315 316 317 318 319 319 320 321 323 324 323 322 323 323 323 324 324
315 320 320 319 321 318 322 326 318 317 321 313 307 309 310 312 317 314 313 316 311 307 309 310 309 310 311 312 312 312 313 313 313 314 314 314 314 314 315 315 315 315 315 315 315 315 315 315 315 315 315 315 315 315 315 315 315 315 315 315 315 315 315 315 315 315 314 314 314 314 314 313 313 313 313 313 313 313 313 314 314 315 315 316 316 316 317 318 320 321 322 322 322 320 319 319 320
314 315 319 322 321 315 317 319 313 315 316 308 306 309 311 314 315 314 316 313 308 305 307 309 310 310 311 311 312 313 313 313 313 313 313 313 314 314 314 314 314 314 314 314 314 314 314 314 314 314 315 314 315 315 315 315 315 315 315 315 315 315 314 315 314 314 314 314 314 314 314 314 314 313 313 313 313 313 313 314 314 314 314 315 315 315 315 315 316 317 318 320 320 320 319 319 320
314 315 315 318 324 322 319 319 320 321 316 309 307 310 318 318 311 311 311 306 305 307 308 310 310 311 312 311 312 313 313 313 313 313 313 313 313 313 313 313 314 314 314 314 314 314 314 314 314 314 314 314 314 314 314 314 314 314 314 314 314 314 314 314 314 314 314 314 314 314 314 314 314 314 314 313 313 313 313 314 314 314 314 314 314 314 314 314 314 314 314 315 315 316 317 319 320
314 313 312 315 320 321 316 312 317 318 313 311 310 313 320 315 307 308 306 303 305 305 307 310 310 311 312 311 312 313 313 313 313 313 313 313 313 313 313 313 313 314 314 314 314 314 314 314 314 314 314 314 314 314 314 314 314 314 314 314 314 314 314 314 314 314 314 314 314 314 314 314 314 314 314 314 313 314 314 314 314 314 314 314 314 314 314 314 313 313 313 313 313 313 314 315 315
314 312 314 316 313 315 314 306 306 309 311 313 312 314 318 313 309 312 308 307 307 305 307 309 310 312 312 311 312 313 313 313 313 313 313 313 313 313 313 313 313 313 313 314 314 313 314 313 313 313 314 314 314 314 314 314 314 314 314 314 314 314 314 314 314 314 314 314 314 314 314 314 314 314 314 314 314 314 314 314 314 314 314 313 314 313 313 313 313 313 313 313 313 313 313 312 313
315 316 315 311 307 313 317 312 312 312 313 318 314 312 317 315 314 315 311 311 310 308 307 306 308 312 311 311 312 312 313 313 313 314 313 313 313 313 314 313 314 314 314 314 314 314 314 314 313 314 313 314 314 314 314 314 314 314 314 314 314 314 314 314 314 314 314 314 314 314 314 314 314 314 314 314 314 314 314 314 314 314 313 314 314 313 313 313 313 313 313 313 313 313 313 313 312
312 315 310 310 314 316 313 312 318 315 311 320 318 310 311 312 316 316 312 313 313 310 309 308 308 311 310 311 312 312 314 313 313 314 313 314 314 313 314 314 314 314 314 314 314 314 314 314 314 314 313 314 314 314 314 314 314 314 314 314 314 314 314 314 314 314 314 314 314 314 314 314 314 314 314 314 314 314 314 314 314 314 314 314 313 313 314 313 313 313 313 313 313 313 313 313 312
308 308 306 312 322 320 313 311 317 315 310 317 318 313 314 314 315 318 313 313 312 310 312 310 308 310 311 311 311 312 313 313 313 313 313 314 314 314 314 314 314 314 314 314 314 314 314 314 314 314 313 314 313 314 314 314 314 314 314 314 314 314 313 313 314 313 313 314 313 314 314 314 314 314 314 314 314 314 314 314 314 314 314 314 314 314 313 313 313 313 313 313 313 313 313 313 312
309 310 310 313 315 313 313 312 312 315 315 318 316 317 325 320 311 314 315 311 309 310 312 310 308 311 311 310 312 313 313 313 313 313 313 314 314 314 314 314 314 314 314 314 314 314 314 313 313 314 313 314 313 314 313 313 314 313 314 314 313 314 314 313 313 313 313 313 313 314 314 314 314 314 314 314 314 314 314 314 314 314 314 313 314 313 313 313 313 313 313 313 313 313 312 313 312
310 311 311 313 313 313 315 313 310 312 313 317 314 313 325 322 309 312 314 307 305 307 309 308 308 311 311 310 312 312 313 314 313 313 314 313 313 314 313 313 313 313 314 314 313 314 313 313 313 313 313 313 313 313 313 313 313 313 313 313 313 313 313 313 313 313 314 313 313 314 313 313 313 313 313 313 314 314 314 314 314 313 313 313 313 313 313 313 312 312 313 313 312 312 312 312 312
Wind_Speed
10 8 7 6 8 7 5 3 1 3 3 2 1 1 1 1 1 2 2 2 1 3 6 4 13 18 7 2 5 4 4 4 4 2 1 7 16 20 20 20 20 18 18 18 16 17 16 14 10 8 7 6 7 8 8 6 5 6 7 6 7 10 10 11 12 12 13 14 15 14 11 9 9 8 8 8 7 7 6 5 4 3 3 3 4 6 8 10 11 10 11 11 12 11 11 12 13
9 7 6 7 9 6 2 3 1 2 4 1 2 2 1 1 1 4 6 4 1 3 6 8 16 14 3 2 5 3 3 3 3 4 8 17 22 20 20 21 20 19 18 17 17 19 18 13 11 9 7 6 7 7 7 5 5 6 6 6 7 10 10 11 12 12 14 16 16 13 9 7 7 7 7 7 7 7 5 4 4 4 4 4 5 8 9 10 10 10 10 11 11 11 10 10 11
8 6 6 7 7 3 1 3 1 0 3 1 3 2 1 2 4 5 7 3 2 8 10 12 14 8 2 3 3 1 2 4 4 9 16 22 23 21 21 21 20 18 18 18 18 19 16 13 12 10 7 6 6 5 5 5 6 7 7 7 7 9 10 12 12 12 14 15 14 13 10 7 6 6 6 6 6 6 5 4 5 5 4 4 7 9 10 10 11 11 10 10 11 11 10 9 10
7 5 6 6 3 3 3 3 1 2 2 2 2 2 2 4 5 4 5 5 10 14 11 11 8 4 2 1 2 1 3 5 6 14 21 23 22 21 22 22 21 18 18 18 18 18 16 14 12 10 7 6 5 4 5 6 7 7 6 7 7 9 10 11 12 12 13 13 12 11 10 8 6 5 6 6 5 6 5 6 6 5 5 6 8 10 11 10 10 11 10 10 10 10 10 9 10
5 5 6 5 2 1 3 2 2 3 2 3 1 3 4 5 5 3 7 12 15 10 6 8 5 4 3 1 2 2 3 5 9 16 21 22 21 21 22 22 21 18 17 17 17 17 16 14 12 10 8 6 4 3 5 7 7 7 6 6 6 8 9 10 11 11 11 13 12 10 9 6 5 5 6 6 5 6 6 7 7 6 6 7 9 10 10 10 10 11 11 11 11 10 9 9 9
4 4 4 3 2 2 2 1 1 1 3 3 1 4 5 5 6 8 12 14 10 2 2 6 4 5 5 4 3 4 4 5 11 17 21 23 21 21 21 22 21 18 17 17 16 16 15 13 11 10 9 6 4 3 5 8 7 7 6 6 6 7 7 9 10 10 10 11 11 10 9 7 6 5 5 7 7 7 8 8 7 7 7 8 10 10 10 11 11 11 10 10 11 10 10 9 9
3 3 2 2 4 3 2 2 2 1 2 3 1 4 3 6 11 13 11 9 5 4 3 6 7 7 4 4 5 5 5 7 13 18 21 22 22 21 20 21 20 18 17 16 16 15 14 12 11 10 9 6 4 3 6 8 7 7 6 6 6 6 6 7 8 9 8 8 8 9 8 7 6 6 5 7 8 8 7 7 7 6 6 7 9 9 9 9 9 9 9 10 10 9 9 9 9
3 2 2 2 3 4 3 2 2 1 0 2 3 4 2 7 14 14 10 6 3 5 5 8 9 4 3 4 5 6 7 11 15 19 21 21 22 21 20 21 20 19 18 17 15 15 13 12 11 9 8 6 5 4 6 8 7 7 6 6 6 6 7 7 7 7 7 6 6 7 6 5 6 5 5 7 7 7 6 6 6 5 6 7 7 8 8 8 8 9 9 10 10 10 10 9 9
2 1 1 3 2 2 2 1 1 2 2 3 4 4 3 10 13 12 9 4 2 4 7 10 6 2 5 6 7 8 9 13 16 20 21 21 21 20 19 20 20 20 18 17 16 15 13 12 11 9 8 7 5 4 6 8 7 7 7 7 7 7 8 8 8 8 8 8 8 7 6 5 5 4 4 6 7 6 6 6 5 5 7 7 7 7 8 9 9 10 11 11 11 11 11 10 8
2 1 2 3 2 2 2 1 1 1 3 4 4 3 7 13 11 10 8 3 3 4 8 10 2 4 9 7 8 9 11 14 17 21 20 20 20 19 19 19 19 19 18 17 16 15 14 12 11 10 8 7 5 4 5 8 8 7 7 7 8 8 8 8 9 9 9 9 9 8 7 6 6 5 4 5 5 5 7 6 5 5 6 7 7 8 9 9 10 11 12 12 12 12 11 10 9
2 2 3 3 2 1 1 2 2 2 3 4 3 3 10 13 10 7 5 2 4 4 8 9 3 9 10 5 8 10 13 16 18 21 20 21 19 18 18 18 19 17 17 17 16 15 13 12 11 10 9 7 6 4 5 7 8 8 7 7 8 8 8 8 8 8 8 8 8 8 7 7 7 6 5 5 5 5 7 6 5 6 6 7 8 8 10 10 10 10 11 11 11 11 11 10 8
2 2 3 3 2 1 2 2 2 4 4 2 1 5 11 13 9 6 5 3 5 5 9 8 4 9 6 3 8 11 15 17 20 20 20 21 18 19 18 18 19 17 17 16 16 15 13 13 12 11 10 7 6 4 4 6 7 8 7 7 7 7 8 8 8 8 8 8 7 7 7 7 7 7 6 6 6 5 7 6 5 5 6 6 7 9 10 11 10 10 10 10 10 10 9 9 7
3 2 4 2 2 1 2 2 2 3 3 1 2 7 12 12 8 5 6 5 6 5 8 7 4 6 3 4 9 13 16 19 21 19 20 20 18 19 18 18 18 17 17 16 15 14 14 13 13 12 10 9 7 5 4 5 6 7 8 7 7 7 7 8 8 8 7 7 7 7 7 7 7 7 7 6 6 5 5 5 4 4 5 6 7 9 10 10 10 10 10 10 10 9 8 8 7
4 4 4 2 1 1 3 1 1 1 1 3 2 10 13 9 7 6 5 5 8 7 7 9 6 4 3 5 9 15 18 20 21 19 20 20 19 19 18 18 17 18 17 16 15 14 14 13 12 12 11 10 8 7 5 4 5 6 7 7 7 7 8 8 8 8 8 8 7 7 7 7 7 7 7 7 7 5 5 5 4 4 6 6 8 9 9 9 9 9 10 9 9 8 7 7 6
5 6 4 3 2 1 3 1 1 4 2 3 4 11 12 7 6 6 6 6 7 8 7 9 8 3 4 4 7 18 20 21 21 19 21 19 20 20 18 18 17 17 17 16 15 14 13 12 12 12 11 11 9 8 6 4 4 4 6 6 6 7 7 8 8 8 8 8 7 7 7 7 7 7 7 7 7 6 5 5 4 5 6 7 8 9 8 9 9 10 10 9 9 8 7 6 5
6 5 5 3 1 1 3 2 2 3 3 4 6 10 9 6 6 3 5 7 6 8 8 8 9 3 4 5 7 19 21 21 22 19 21 20 20 21 20 19 17 17 17 16 15 14 14 13 13 12 11 11 10 10 7 6 5 4 5 5 5 5 5 6 6 7 7 7 7 7 7 7 7 7 7 6 7 6 6 5 5 6 7 7 8 8 8 9 9 10 10 9 9 8 7 6 5
6 4 4 2 2 2 4 4 4 3 3 4 8 11 8 3 6 4 4 7 6 9 10 7 11 7 6 6 7 18 21 21 23 21 22 22 21 22 22 22 20 19 18 17 16 15 15 14 13 12 12 11 11 10 8 7 6 5 5 5 4 3 3 4 4 5 6 6 6 6 6 6 6 6 6 6 6 6 6 6 6 6 6 7 7 7 8 8 9 9 9 8 8 7 7 6 5
5 3 3 2 3 3 5 7 7 4 1 5 10 13 10 3 5 6 4 5 5 9 11 8 11 11 7 4 5 15 22 23 24 23 24 24 24 24 24 24 22 21 20 19 18 17 16 15 14 13 13 11 11 10 9 8 7 6 5 4 4 3 2 2 2 3 4 5 5 5 5 5 5 5 5 5 5 5 5 5 6 6 5 6 6 7 7 7 8 8 7 7 7 7 6 6 6
4 3 3 3 5 4 5 7 8 4 2 8 11 11 11 5 7 8 3 4 4 6 9 8 11 13 11 7 5 13 21 24 24 25 25 26 26 26 26 25 24 23 22 21 20 18 17 16 15 14 14 12 12 11 11 9 8 8 7 6 5 3 2 2 2 2 2 3 3 4 4 4 4 4 4 4 4 4 4 4 4 4 4 4 5 6 5 5 6 6 5 5 5 5 6 6 5
2 4 2 4 6 3 3 5 7 4 1 8 12 10 10 6 8 9 4 3 3 6 10 10 12 13 12 10 8 12 19 24 24 25 26 26 26 26 26 26 25 24 22 22 21 20 19 18 17 16 15 14 13 12 12 11 10 10 9 8 6 5 4 3 3 2 2 1 1 2 3 3 3 3 3 3 3 3 3 2 2 3 3 3 3 3 3 3 3 3 3 3 3 4 4 5 4
2 4 2 4 5 3 3 4 4 4 3 8 12 9 7 6 9 10 6 2 4 10 14 14 13 10 11 12 11 12 18 23 24 24 25 26 26 25 25 25 24 23 22 22 21 21 20 19 18 17 16 16 15 14 13 13 12 11 10 10 8 7 7 5 5 4 3 2 1 1 0 1 2 2 2 1 2 2 1 1 1 1 1 2 1 1 0 1 1 1 2 2 2 3 3 4 4
3 2 1 3 5 3 2 3 4 6 5 9 12 8 7 8 8 10 10 5 5 8 11 13 13 10 9 10 12 13 16 21 22 23 24 25 25 24 24 24 24 23 23 22 22 21 20 19 19 18 18 17 17 15 15 14 14 13 12 11 10 9 9 8 7 6 5 4 4 3 2 1 1 0 0 1 1 1 1 1 1 1 1 1 1 2 2 2 2 2 3 3 3 3 3 4 4
3 1 1 5 4 3 2 2 4 7 8 11 12 8 8 10 6 8 13 14 10 5 5 6 10 11 10 10 11 13 15 19 20 20 21 22 22 22 22 23 24 24 23 22 21 21 20 20 20 19 19 18 18 17 16 16 15 14 14 13 12 12 11 10 9 8 7 7 6 5 5 4 4 3 3 2 2 3 3 3 3 3 3 3 3 4 4 5 5 4 4 5 5 5 4 4 5
3 1 2 5 3 4 3 2 5 5 8 10 11 9 7 9 6 5 13 18 16 11 7 4 5 8 12 12 11 12 13 15 15 16 17 17 18 19 20 21 22 22 22 22 21 21 21 20 20 20 19 19 19 18 18 17 17 16 16 15 14 14 13 12 11 11 10 9 8 8 7 7 6 6 5 5 5 5 5 5 5 5 6 6 5 6 6 6 6 6 6 6 6 6 6 6 5
2 3 4 6 4 5 6 4 6 5 7 8 8 6 4 6 5 5 12 15 13 15 16 12 9 7 11 14 12 12 13 14 14 15 16 16 17 18 19 20 21 22 22 21 21 21 20 20 20 20 20 19 19 19 19 18 18 18 17 16 15 15 15 14 13 13 12 12 11 10 10 9 8 8 8 7 7 7 7 7 7 7 7 7 7 8 8 8 8 8 8 8 7 7 7 7 7
2 6 7 8 5 5 6 6 7 6 7 7 6 3 1 3 3 7 13 13 12 15 15 16 15 11 10 14 14 13 13 14 14 15 15 15 17 17 18 19 20 21 21 20 21 21 20 20 21 20 20 19 19 19 19 19 19 19 18 17 16 16 16 16 15 15 14 14 13 12 12 11 11 10 10 10 9 9 9 9 9 9 9 9 9 9 9 10 9 9 9 9 9 9 9 9 9
8 12 11 9 7 6 5 6 7 7 6 4 5 2 1 3 1 5 7 5 7 11 13 14 15 14 11 13 16 15 13 14 14 15 15 16 16 16 16 17 18 18 19 19 20 20 20 21 21 20 20 20 20 20 20 20 20 20 19 18 18 17 17 17 17 17 16 16 15 14 14 13 13 12 12 12 12 11 11 11 11 11 11 10 11 11 11 11 11 11 11 11 11 11 11 11 11
13 16 11 7 7 7 5 5 6 5 4 2 3 2 1 3 2 5 6 4 5 5 11 12 13 13 11 11 15 17 15 15 16 16 16 16 14 14 15 14 14 15 16 17 17 18 19 20 21 20 20 20 21 21 21 21 20 20 20 20 20 18 18 18 19 18 18 17 16 16 16 16 15 14 14 14 14 14 13 13 13 13 13 13 13 12 13 13 13 13 13 13 13 13 13 13 13
11 10 5 5 5 6 6 4 3 2 2 2 3 1 3 2 6 7 5 7 7 6 8 10 12 13 13 12 13 16 17 17 17 17 16 15 14 14 14 13 13 14 14 15 16 17 18 18 19 20 20 21 22 22 21 22 21 21 21 21 21 20 20 20 19 19 19 18 18 18 18 18 17 17 16 16 16 16 16 16 15 15 15 15 15 15 15 15 14 14 14 14 14 14 15 15 15
7 4 4 3 5 4 5 5 2 2 2 1 3 1 5 6 9 7 5 6 6 7 8 9 11 13 15 14 14 15 16 18 17 15 15 16 17 17 17 16 16 15 15 16 16 16 16 17 18 19 20 21 22 22 22 23 23 22 21 21 22 22 22 21 20 20 20 20 20 20 20 19 19 19 18 18 18 18 18 18 18 17 17 17 17 17 16 16 16 16 15 16 16 16 16 17 17
3 3 2 2 1 4 5 5 3 2 2 1 4 1 5 7 7 4 8 9 7 9 9 8 10 12 15 16 16 17 17 18 17 16 16 17 18 19 19 18 18 18 17 17 16 15 16 17 18 19 20 20 21 22 22 22 23 23 22 22 22 22 23 23 22 22 21 21 21 21 22 21 21 20 20 20 20 20 20 20 19 18 19 19 20 20 20 19 18 17 18 18 18 18 18 18 18
3 2 1 2 3 5 6 5 4 2 2 1 5 2 6 8 7 1 3 5 4 8 9 9 10 11 13 16 17 18 18 19 19 19 18 18 18 19 19 19 19 19 19 18 18 17 17 17 18 19 19 20 21 21 22 22 22 23 23 23 23 23 23 23 23 23 23 23 23 23 23 23 23 22 22 22 23 23 23 22 21 20 20 21 22 22 22 21 21 20 20 20 19 20 19 19 19
4 2 2 2 3 2 4 3 5 4 1 1 2 2 3 3 4 2 3 1 2 5 7 7 9 10 12 15 17 19 19 20 21 21 19 18 18 17 18 18 19 20 20 20 20 20 19 19 19 19 19 19 20 21 21 22 22 23 23 24 24 24 25 25 24 24 24 24 24 23 23 23 24 24 24 24 25 24 24 24 22 22 22 22 23 23 22 22 22 22 21 21 21 21 21 21 21
2 2 2 2 3 2 2 2 5 6 1 1 3 1 6 5 7 7 6 7 10 11 12 11 10 11 11 12 15 17 20 21 23 21 18 17 17 16 17 17 18 19 20 20 21 21 21 21 21 20 19 20 20 20 21 22 22 23 23 24 24 25 26 26 26 25 25 25 25 24 23 23 23 24 24 25 25 25 25 24 23 23 23 23 23 23 23 23 23 21 20 20 22 23 22 22 24
5 3 3 2 2 3 3 2 2 6 2 1 2 2 9 9 12 17 16 11 13 15 15 15 15 15 14 13 14 15 18 21 21 19 17 17 17 17 17 17 18 19 19 20 20 21 22 22 22 21 21 21 21 21 21 22 23 24 24 24 25 26 26 26 26 26 26 26 26 26 25 25 24 24 23 24 25 24 24 24 23 24 25 25 26 26 25 24 26 25 20 18 23 26 24 23 26
9 6 5 5 3 4 4 4 3 2 2 2 3 4 8 9 10 18 20 12 11 15 16 17 17 16 16 16 17 17 18 19 17 16 16 17 18 18 18 19 19 19 19 20 20 21 21 21 22 22 22 22 22 22 22 23 23 24 25 25 25 26 26 26 26 26 25 25 25 25 25 25 25 24 23 24 25 23 23 25 24 22 23 24 27 28 27 26 28 29 24 20 23 26 26 26 28
8 7 5 4 4 2 3 4 4 2 3 3 3 3 8 10 9 17 22 13 11 17 18 19 19 18 19 19 20 20 21 21 18 17 17 17 19 20 20 20 21 21 20 21 21 21 20 20 21 21 20 21 23 22 22 23 23 24 24 24 24 24 25 25 26 25 25 25 25 25 25 25 25 26 25 25 26 24 23 25 25 24 24 24 24 25 29 30 30 30 28 27 27 27 27 30 31
6 6 5 2 2 2 2 2 3 2 1 2 1 3 8 10 9 16 19 11 11 16 16 17 19 20 21 22 23 23 23 23 22 22 21 21 23 23 24 24 24 24 23 23 23 22 21 21 21 20 20 21 21 21 21 21 21 22 23 23 23 24 24 24 24 24 24 24 24 24 25 26 27 29 29 29 31 29 24 22 24 26 27 26 25 25 27 29 29 28 29 33 34 31 32 32 31
6 4 5 2 2 2 2 3 4 4 1 2 3 4 8 10 9 13 14 11 13 14 13 15 17 19 20 19 19 20 20 21 21 22 22 24 26 27 27 27 26 26 25 25 24 23 22 21 20 19 19 20 20 20 20 20 20 20 21 22 23 24 24 24 24 23 23 24 24 24 25 25 26 28 29 29 31 30 26 24 27 27 26 25 27 28 28 26 27 27 27 31 32 33 34 31 30
4 4 5 3 2 2 1 2 4 3 2 1 2 2 7 7 6 7 6 7 9 9 8 9 9 12 13 11 12 13 12 12 11 12 14 19 22 24 26 27 27 26 25 24 23 23 22 20 19 18 19 19 19 20 20 19 20 20 20 21 22 23 24 24 25 25 25 25 25 25 25 25 25 25 26 28 29 28 26 27 30 30 30 30 31 32 31 28 28 28 28 28 28 31 33 30 30
1 3 6 4 4 4 3 1 1 2 3 2 2 3 5 4 5 5 3 5 8 8 6 5 5 4 6 6 8 9 9 7 4 4 7 12 15 18 20 21 22 22 23 23 22 22 21 20 19 18 18 19 20 20 20 19 20 19 20 20 21 22 23 23 24 24 25 25 24 23 23 23 24 24 24 26 28 29 29 30 31 30 30 32 34 34 34 33 31 32 32 31 31 32 32 31 34
0 4 6 6 8 6 2 2 3 3 3 3 4 3 4 4 5 6 4 7 8 8 11 12 12 10 7 5 3 3 4 2 1 3 4 6 8 11 13 13 13 15 18 20 21 21 21 20 19 18 18 18 19 19 19 19 19 18 19 19 19 20 20 21 21 20 21 21 21 21 21 21 22 22 22 23 25 26 28 30 32 32 31 32 33 34 36 35 33 33 33 32 34 34 32 36 38
2 4 5 7 8 9 7 5 4 2 1 2 4 3 3 6 6 6 4 6 7 7 9 12 15 15 13 11 10 9 8 9 9 8 7 5 4 5 6 7 8 8 10 12 14 16 17 17 17 16 16 16 16 17 17 17 17 17 16 16 16 17 18 17 17 18 18 19 19 20 20 20 21 22 22 22 23 23 25 26 29 31 33 34 35 35 37 36 32 32 32 31 32 33 34 39 42
3 3 6 8 9 8 7 6 4 1 2 2 4 4 1 4 6 6 4 3 6 7 6 10 15 16 16 15 15 16 16 15 14 13 11 10 8 7 6 5 5 4 4 4 5 7 9 10 11 11 11 11 11 11 12 12 12 13 13 13 14 15 16 15 16 17 18 18 19 19 19 20 21 21 22 22 23 23 24 26 27 28 30 32 35 37 39 36 33 32 33 33 32 33 34 36 39
3 3 6 7 8 7 5 6 4 1 1 2 5 4 1 5 6 6 4 1 4 5 4 7 12 15 16 16 16 18 19 18 18 17 16 15 14 12 11 9 8 8 7 6 6 6 6 5 5 5 5 5 5 6 6 7 8 9 10 12 13 13 14 14 15 17 17 18 19 19 19 20 20 21 21 22 22 23 24 25 26 27 29 31 34 37 38 37 35 34 35 36 38 39 37 35 36
5 6 7 7 7 6 5 5 4 3 2 3 4 3 1 4 6 4 3 0 3 3 2 5 9 14 16 18 20 21 22 22 22 21 20 20 19 18 17 15 15 14 13 12 12 11 10 9 8 7 6 5 4 3 3 3 4 6 8 9 11 11 12 13 14 15 16 17 18 18 19 19 20 21 21 21 22 22 23 24 25 26 28 30 32 34 35 35 35 35 37 38 38 38 38 38 38
12 8 7 7 6 5 4 3 3 4 2 5 4 2 0 2 5 4 2 2 4 4 0 4 9 15 17 19 23 25 27 27 26 25 24 23 22 21 20 19 19 18 18 17 16 15 14 14 13 11 10 8 6 4 2 0 2 4 5 7 8 9 10 11 12 13 14 15 16 17 18 18 19 20 20 21 21 21 22 22 23 24 25 27 29 31 33 35 36 35 36 36 37 38 39 41 42
8 4 5 5 4 4 4 4 4 3 4 5 4 2 1 3 4 2 3 4 4 6 5 5 8 13 17 20 23 27 29 29 29 28 26 25 23 21 20 19 18 17 16 15 15 14 13 12 12 11 10 8 7 6 5 4 4 4 4 5 6 7 8 9 11 12 12 14 15 16 17 18 19 19 20 20 20 20 20 20 21 22 24 25 26 28 30 32 34 35 34 35 36 37 39 40 42
4 5 6 5 2 2 2 3 1 2 5 4 2 1 1 5 6 5 6 6 6 7 5 3 6 10 15 18 23 26 28 29 29 28 27 26 25 23 21 20 18 17 15 14 14 13 13 12 12 12 11 11 11 10 9 8 7 6 5 5 5 6 7 8 10 11 11 12 14 15 16 17 18 18 19 19 18 18 19 20 21 22 23 24 25 26 27 28 31 34 36 37 38 39 38 38 40
4 6 6 4 3 3 1 3 1 3 4 2 3 2 1 4 6 7 9 7 6 7 5 1 3 8 12 16 22 25 27 28 27 27 27 26 25 24 23 22 21 19 18 17 16 16 16 15 14 13 13 12 11 11 10 9 8 7 7 6 7 7 8 9 10 10 11 12 13 15 16 16 17 18 18 18 17 17 19 20 20 22 23 23 24 25 26 27 28 31 33 36 39 40 39 38 39
2 2 5 5 5 4 4 4 3 3 2 2 3 2 3 3 2 5 7 7 6 5 6 5 5 7 11 16 21 24 26 26 26 26 26 25 24 23 22 21 20 20 19 17 16 15 15 14 13 11 11 10 10 9 9 9 9 9 9 9 9 10 10 11 11 12 12 12 13 14 15 16 16 16 16 16 16 16 18 19 20 22 23 23 24 25 26 27 28 29 31 33 35 36 37 39 40
2 1 5 3 4 5 4 3 5 4 1 1 2 3 4 3 3 5 6 6 3 5 9 10 10 10 14 17 20 23 25 24 24 24 23 22 21 20 19 19 18 17 16 15 13 11 10 9 9 9 9 9 9 9 9 10 10 10 10 10 11 11 12 12 12 13 13 14 14 14 15 15 15 15 15 15 16 16 17 18 20 21 22 23 24 25 26 27 28 29 30 31 33 33 35 38 39
2 2 3 4 4 8 6 2 1 3 2 2 1 3 5 3 3 5 2 2 2 4 9 13 13 16 18 18 20 23 23 23 22 21 21 20 19 18 17 16 15 15 14 12 11 9 7 7 7 8 8 8 9 9 10 11 11 12 12 12 13 13 13 14 14 14 14 14 15 16 16 16 16 16 16 16 16 17 17 18 20 20 21 22 23 24 26 27 28 30 31 32 33 33 35 37 38
4 3 5 4 3 5 5 2 3 4 1 3 1 3 4 1 2 4 2 6 2 2 8 12 15 19 19 18 19 22 22 21 20 19 19 18 17 16 14 14 13 13 12 11 10 9 7 6 6 7 8 9 10 11 11 12 12 13 13 14 14 15 15 15 15 15 15 15 15 16 17 17 18 18 18 18 18 18 19 20 21 21 21 22 23 24 25 26 27 29 30 31 32 32 35 37 38
3 5 5 4 3 2 2 3 2 1 2 3 3 3 3 3 4 3 4 9 5 4 7 9 13 19 19 17 18 21 21 20 19 19 17 16 15 14 13 12 11 10 9 9 9 8 7 7 7 8 9 10 11 11 12 12 13 13 14 15 15 16 16 16 16 16 16 16 16 17 18 18 19 19 20 20 20 20 21 22 23 24 24 24 25 25 26 27 28 29 30 31 31 32 34 36 37
4 3 3 2 2 4 2 2 4 3 3 2 3 3 3 6 6 6 10 10 9 9 7 7 15 21 19 18 19 20 20 19 18 17 16 15 14 13 11 10 9 8 6 6 6 6 7 7 7 7 8 9 9 10 10 11 11 12 13 13 14 14 15 15 16 16 16 16 17 18 18 19 19 20 21 21 21 21 21 22 24 25 26 26 26 26 27 28 29 31 31 32 32 32 35 37 37
3 3 4 2 2 2 2 1 2 4 4 3 2 3 5 6 4 7 9 8 9 12 10 10 18 22 19 18 20 20 19 18 17 15 14 13 12 11 10 9 8 7 5 4 4 4 5 5 6 6 6 7 8 8 9 10 10 11 11 12 12 13 14 15 15 16 16 17 18 18 19 19 20 20 21 22 22 22 23 23 24 25 26 27 27 28 28 29 31 32 33 34 34 35 37 38 38
4 4 5 6 4 4 3 1 1 2 3 4 4 3 7 6 3 5 6 5 10 16 17 17 22 23 19 18 19 19 18 17 15 14 12 11 10 9 9 7 6 5 4 4 4 4 4 5 5 5 5 6 6 7 8 9 10 11 11 12 13 13 14 14 15 16 16 17 18 19 20 21 21 21 22 22 23 23 24 25 25 26 27 27 28 29 29 31 32 34 35 36 36 37 39 40 40
Wind_Direction
309 309 312 311 318 321 330 357 82 17 70 100 316 212 214 221 182 170 185 192 154 194 192 177 158 154 142 183 196 159 113 145 168 133 148 145 136 146 156 160 161 160 159 156 154 152 142 131 134 136 127 106 81 63 60 69 78 85 98 110 107 107 109 109 110 111 118 127 131 124 122 139 144 136 132 133 132 134 134 135 142 140 125 97 87 93 98 95 93 94 91 86 82 81 81 86 90
310 309 312 309 320 321 302 34 77 341 44 103 253 195 256 319 162 197 188 188 181 160 173 162 156 159 147 128 154 128 108 117 132 126 131 139 140 149 157 160 161 160 158 152 148 148 145 142 144 145 138 107 80 66 58 70 94 93 98 106 110 112 112 111 110 114 125 134 134 127 125 141 148 145 141 143 142 139 139 140 133 124 114 104 104 100 98 95 95 93 87 85 82 81 80 82 87
311 303 309 311 326 354 95 44 71 78 68 158 264 231 214 167 204 221 190 194 117 131 140 148 153 162 132 102 134 128 142 128 121 131 138 145 148 153 156 159 161 162 158 150 148 148 150 153 151 151 146 109 81 66 57 68 86 90 98 102 113 116 114 115 112 113 126 138 141 133 120 119 136 147 150 149 142 137 141 144 134 127 121 113 109 101 96 96 98 95 87 84 80 78 77 79 82
308 298 306 313 330 27 69 46 105 124 115 189 274 238 211 188 208 227 176 146 129 131 133 142 146 168 168 90 149 114 136 148 151 146 147 153 153 153 156 159 162 165 162 154 155 154 156 155 151 153 147 117 92 71 60 68 79 85 95 102 112 115 115 117 114 115 126 132 133 131 123 120 125 135 149 149 143 140 142 143 142 138 130 114 105 101 98 96 97 97 90 84 79 76 74 76 81
298 299 304 309 316 62 85 71 94 108 171 180 206 245 225 202 200 179 138 136 134 124 137 152 140 162 159 119 137 108 140 156 164 158 153 155 155 155 157 161 163 167 166 160 161 160 159 155 154 155 148 134 109 76 60 63 74 83 90 101 107 110 114 118 117 114 121 128 128 129 128 127 119 121 137 143 143 140 143 144 141 133 124 111 101 97 96 96 93 93 91 88 83 78 74 75 83
284 296 311 328 89 112 116 108 124 159 224 169 155 262 227 202 180 143 137 147 149 113 168 185 175 154 134 95 99 114 133 155 167 163 157 158 157 158 160 163 164 167 168 165 166 162 159 158 159 157 150 145 121 78 58 59 67 78 83 95 101 106 115 117 117 114 118 130 135 135 128 122 113 110 119 128 132 134 143 143 134 127 119 108 101 99 97 96 91 89 91 90 85 80 79 80 87
257 275 328 64 81 57 107 149 198 216 238 169 197 271 239 193 161 138 142 163 200 252 233 218 181 145 121 103 109 114 118 146 162 162 161 161 159 160 162 164 167 168 170 168 167 163 162 162 161 161 155 145 127 88 60 62 64 73 76 84 94 100 108 109 111 114 115 119 124 131 130 120 108 100 102 116 127 134 141 139 132 127 114 103 99 100 98 95 91 88 85 79 73 69 71 76 85
235 249 22 94 57 25 87 126 219 214 301 218 240 268 258 171 155 143 153 171 212 234 230 202 177 151 137 129 130 121 120 143 155 160 164 165 161 162 165 166 169 169 172 172 168 166 167 165 165 166 161 148 132 101 67 65 66 76 81 77 82 83 88 93 96 98 95 93 95 105 114 110 97 93 95 107 125 136 138 135 131 117 100 97 96 96 94 91 89 82 74 68 61 55 55 63 77
205 217 58 87 94 39 48 21 237 236 284 257 257 262 190 153 152 148 158 188 223 221 216 192 189 208 153 127 134 132 135 149 157 161 166 169 165 164 167 168 172 172 173 174 170 170 171 171 172 170 165 155 138 111 75 69 66 77 86 82 80 78 79 82 83 81 78 77 77 82 89 89 88 100 102 100 116 133 138 137 127 108 98 97 95 92 89 87 84 76 69 66 61 58 57 61 72
175 104 123 87 102 58 8 293 246 236 267 262 267 245 158 151 150 149 159 210 234 226 206 190 206 158 145 124 133 141 149 155 160 164 168 171 170 167 168 170 173 174 175 175 173 174 176 178 178 173 170 160 142 120 80 70 66 75 88 88 86 84 81 81 82 81 79 77 78 81 82 83 91 106 105 94 106 132 142 141 132 112 103 100 97 94 90 88 85 78 71 68 65 62 62 65 72
154 56 114 83 80 103 186 222 269 269 273 279 269 173 152 154 145 148 166 220 224 215 189 188 196 146 135 121 138 149 158 161 164 167 169 172 175 170 169 172 173 176 178 176 175 177 180 182 182 176 174 164 146 128 86 73 66 75 88 92 93 93 90 88 88 89 88 86 85 84 85 88 96 107 103 94 106 136 147 146 139 123 112 104 100 99 98 98 95 87 77 73 70 67 67 69 76
166 33 87 87 124 187 205 179 265 288 302 309 162 153 154 158 149 160 189 207 205 204 196 195 182 152 126 114 148 155 163 165 167 169 171 174 178 172 172 174 172 176 181 180 178 180 182 184 183 178 176 167 157 144 107 84 72 74 80 86 95 99 99 96 95 95 95 93 89 85 83 86 91 97 93 91 99 128 149 146 138 125 115 104 99 102 103 103 98 89 79 74 72 70 70 72 80
166 133 97 100 158 169 163 152 275 317 327 289 154 155 156 165 168 182 191 202 198 189 207 202 179 165 131 129 151 159 167 170 168 171 174 175 178 175 174 176 174 175 181 187 184 183 184 185 184 180 178 172 166 161 134 100 85 79 77 78 87 94 97 95 94 93 92 90 87 83 80 82 84 83 81 82 86 109 140 143 136 115 99 97 99 102 102 99 92 84 76 70 68 65 64 67 73
154 148 114 113 109 122 158 123 305 103 274 260 175 158 159 170 184 200 198 196 203 192 204 203 190 184 152 142 159 168 171 172 171 173 176 178 180 177 176 177 177 176 180 189 189 190 189 187 185 181 180 174 171 171 158 126 105 93 88 83 87 92 94 92 90 89 89 88 84 82 80 80 81 79 79 80 84 99 126 139 143 108 88 95 100 98 98 94 86 79 73 66 64 59 56 56 60
153 136 98 103 64 13 166 106 124 132 224 229 156 164 163 170 182 213 218 198 213 205 202 196 190 205 179 157 168 176 175 174 174 174 177 179 180 180 181 180 181 180 182 188 192 196 196 193 188 184 183 178 179 180 175 160 141 118 108 98 98 101 102 100 96 94 91 91 89 86 84 81 80 79 81 84 88 97 116 134 134 106 94 99 101 96 92 89 83 77 72 66 63 59 56 54 54
149 134 77 84 115 182 175 157 138 123 245 205 155 167 160 177 193 218 220 208 229 207 197 192 188 184 155 138 150 174 176 177 176 175 177 180 183 185 187 188 188 187 187 190 193 199 203 202 194 189 187 186 186 187 187 180 171 154 134 125 121 114 114 109 104 101 95 95 93 91 89 87 84 81 82 85 92 100 114 121 114 105 102 101 99 93 88 85 83 77 72 68 65 61 59 57 57
138 121 65 78 159 191 183 172 172 157 238 210 168 171 154 171 204 206 212 214 241 209 200 202 193 175 139 128 139 172 177 180 180 179 180 183 187 189 192 195 195 195 194 194 196 199 204 207 202 198 195 194 193 194 197 193 190 182 164 152 146 136 127 113 107 103 97 96 91 90 90 90 89 85 84 84 91 101 110 111 106 105 103 99 94 89 87 85 83 78 74 70 65 62 59 58 57
131 107 87 131 178 190 184 180 188 162 169 188 177 177 167 156 186 183 192 212 240 219 211 213 202 193 177 156 149 177 181 182 186 185 184 187 190 193 196 199 200 200 200 199 199 201 204 207 207 205 203 203 201 203 206 206 206 202 197 186 176 166 150 130 118 106 100 97 89 86 82 86 90 86 85 85 89 97 106 108 107 106 101 97 90 86 87 85 81 79 76 69 62 57 53 53 53
112 100 107 192 202 200 188 181 182 156 70 167 170 177 174 165 170 175 195 218 219 223 223 223 215 209 205 202 183 186 187 187 191 192 191 191 194 196 198 201 203 204 204 204 203 204 206 208 210 210 209 210 210 210 211 214 215 214 216 211 206 204 197 194 179 148 127 108 94 85 75 81 83 81 84 86 87 88 98 103 106 107 102 94 86 85 84 83 81 78 73 63 55 48 45 45 43
111 108 117 233 211 194 192 189 188 185 101 155 164 173 174 169 168 176 196 222 221 228 227 223 221 213 203 205 201 195 193 193 195 197 197 197 198 200 201 204 206 207 208 208 207 208 209 210 211 212 212 214 216 216 216 217 219 221 222 221 221 221 223 224 217 211 196 163 119 93 78 81 77 76 78 86 90 85 89 91 97 98 99 97 87 87 80 73 72 66 58 46 39 31 30 28 26
141 124 162 219 179 137 178 194 205 206 175 162 162 159 173 183 178 181 177 172 255 246 238 232 232 219 199 200 200 199 196 197 200 201 201 201 202 204 206 208 209 210 210 210 211 211 212 213 213 213 215 216 219 221 221 222 224 226 227 228 228 230 235 236 235 236 230 232 224 196 139 91 85 87 78 96 99 90 93 82 89 81 100 114 118 127 71 24 15 11 6 359 358 3 7 5 6
128 113 209 159 138 119 165 184 194 190 167 162 157 151 180 182 183 193 183 185 234 260 259 247 247 237 218 210 204 201 199 200 204 205 205 205 206 207 208 210 211 213 213 213 214 214 215 216 217 217 217 218 221 223 224 227 229 231 232 233 235 236 239 242 245 246 244 247 248 249 247 251 256 246 285 194 186 182 186 213 231 250 246 231 232 246 264 274 285 294 301 311 314 324 335 339 344
142 328 143 133 104 90 138 192 178 177 171 166 165 168 181 173 181 202 204 219 228 262 302 266 257 242 230 226 215 210 202 202 207 209 209 209 209 210 209 211 213 214 216 217 216 217 218 218 220 221 222 222 223 226 226 228 231 233 236 236 239 240 242 244 248 251 251 250 251 255 255 255 258 257 262 257 246 240 240 240 240 249 253 254 253 256 262 266 274 279 284 291 294 300 309 320 325
124 112 163 140 84 68 79 156 147 159 176 172 169 172 179 179 186 207 223 234 234 244 259 273 287 250 231 229 227 224 212 208 211 212 213 213 213 212 212 214 215 217 219 220 219 220 221 221 222 224 226 227 227 228 229 230 232 235 237 238 239 241 243 244 247 251 251 252 253 254 255 256 257 259 259 259 253 246 247 248 248 250 253 257 258 260 263 266 270 273 278 281 285 289 293 301 308
90 134 159 133 100 86 75 111 133 127 155 159 159 163 186 201 202 232 243 246 243 246 251 255 272 270 238 230 232 230 220 216 215 214 214 215 215 214 215 217 218 220 221 221 222 223 225 225 226 228 230 230 231 232 233 234 235 238 240 241 241 242 244 245 246 248 249 251 253 253 255 256 257 261 260 259 257 251 249 251 256 257 258 260 261 264 265 267 269 271 274 276 280 282 286 292 294
166 137 139 127 100 100 94 103 121 117 135 154 158 134 147 196 227 260 256 260 257 251 252 251 253 264 252 234 232 233 226 221 217 217 215 214 216 216 216 218 221 222 223 224 225 226 227 229 230 231 233 234 236 236 238 238 239 242 244 246 247 246 246 248 248 248 250 251 252 254 256 257 258 259 260 261 259 256 252 251 255 260 263 265 266 269 269 270 271 271 271 272 275 276 278 281 283
148 125 111 104 92 94 104 109 111 114 116 144 171 146 120 155 203 258 245 264 270 250 245 247 246 252 256 241 231 232 232 227 225 223 220 219 217 217 216 217 221 223 224 225 226 227 228 230 233 235 236 237 239 240 242 242 243 246 248 250 250 250 249 250 250 250 251 252 254 254 255 256 257 257 258 260 261 261 258 255 256 259 262 265 267 269 270 272 272 273 273 272 273 274 274 275 276
135 125 100 64 76 82 68 95 103 107 104 89 142 140 100 126 195 241 225 246 294 259 235 238 240 241 248 245 233 230 232 230 231 230 226 224 221 220 218 218 223 224 226 227 227 229 230 231 234 236 238 240 241 243 245 246 246 247 250 252 252 253 251 251 251 252 253 253 254 255 256 257 257 258 257 258 260 261 261 258 257 259 261 264 265 267 268 270 272 273 274 275 276 276 277 277 277
122 119 109 5 24 58 31 41 55 68 98 75 96 75 295 223 229 241 236 244 263 265 240 235 234 235 239 243 237 232 233 232 232 233 232 233 234 234 232 230 233 233 234 235 234 233 233 234 236 237 239 241 243 245 247 249 250 249 250 252 254 255 254 254 253 253 255 255 256 256 256 256 256 258 258 259 259 260 261 260 259 260 261 262 262 263 264 267 271 274 276 278 280 281 280 279 279
110 81 109 33 15 4 3 23 21 79 105 124 115 286 279 263 253 243 240 238 239 249 246 239 234 233 237 241 242 236 233 233 234 236 238 239 240 241 241 239 240 242 242 242 240 238 238 239 240 241 242 243 246 248 249 250 253 254 253 253 254 255 256 257 257 256 256 256 257 258 258 258 257 258 259 259 259 259 259 259 260 261 262 263 263 263 264 267 269 273 276 279 281 283 283 282 282
99 59 64 63 128 264 331 16 19 122 144 147 124 189 265 270 281 248 239 243 244 251 249 249 244 236 237 240 243 242 239 238 240 242 243 243 242 243 244 243 242 244 244 244 244 245 245 244 244 245 246 248 249 250 252 253 255 258 259 259 258 259 259 259 260 260 259 258 257 257 258 259 259 259 260 260 259 259 259 259 259 261 264 265 266 265 264 264 266 268 270 272 275 277 280 281 281
36 102 336 353 164 253 320 13 27 107 177 95 118 204 274 271 277 250 214 230 241 257 256 256 253 245 242 242 244 247 246 245 247 247 244 243 242 243 244 245 245 245 247 248 249 250 250 250 250 250 250 251 252 254 256 258 258 260 262 264 265 265 265 264 264 263 262 261 259 257 257 258 259 259 259 260 260 259 260 261 260 261 264 266 270 272 270 268 267 266 267 268 270 274 276 276 276
360 101 173 239 169 258 313 11 14 24 187 10 91 210 271 281 265 177 145 170 330 297 276 262 256 255 250 248 248 249 249 248 248 247 244 242 241 242 244 246 247 248 250 252 252 253 253 254 255 255 255 255 256 257 258 259 261 262 263 265 267 268 269 269 269 269 267 265 263 260 256 254 255 256 257 258 260 262 263 263 263 262 260 260 264 268 270 272 270 269 270 271 271 274 276 274 274
280 49 111 209 189 195 286 292 350 13 108 264 22 224 246 265 272 263 253 278 297 294 288 281 272 266 260 256 252 250 250 247 245 244 243 245 244 242 244 244 246 247 249 251 252 253 254 255 257 258 259 259 258 258 259 260 261 263 263 264 266 267 269 270 271 270 270 270 270 269 266 262 257 255 255 255 257 261 263 265 267 268 267 265 264 264 268 273 275 275 273 275 274 271 274 277 276
173 156 133 198 223 207 242 238 313 12 51 255 350 271 263 275 284 281 278 283 284 282 283 283 280 273 267 261 256 253 252 249 245 245 245 246 245 243 242 241 242 244 246 248 250 252 254 255 256 257 258 259 259 260 260 260 261 261 262 262 263 264 265 266 268 268 268 269 270 271 272 271 269 266 263 263 262 262 266 269 268 268 270 271 269 270 274 277 277 273 266 278 282 269 267 278 275
158 160 143 157 178 226 241 240 277 19 80 262 252 249 275 285 292 287 286 287 279 279 281 279 278 275 270 264 258 255 254 254 253 252 249 244 242 239 238 238 239 240 241 244 246 248 251 253 255 256 256 258 259 259 259 259 260 260 261 261 261 262 264 266 268 269 270 270 271 273 274 272 272 273 271 271 271 268 267 269 271 269 269 268 265 265 271 276 277 270 262 276 287 274 270 279 275
131 126 108 146 160 225 245 257 302 70 138 250 252 267 282 277 277 279 283 289 275 273 275 276 277 275 272 267 261 259 258 259 259 257 251 244 242 239 238 238 239 240 240 242 244 246 248 250 253 254 255 257 257 258 259 259 260 261 262 263 264 266 267 269 270 272 274 275 276 277 279 280 281 283 282 281 281 274 261 262 270 269 272 277 271 270 271 270 271 271 267 272 276 273 273 275 272
98 122 125 142 177 206 242 256 322 25 145 241 347 324 281 270 268 271 278 282 269 270 271 276 280 275 272 269 268 267 265 263 261 257 252 247 246 245 245 244 245 246 246 247 247 247 248 250 251 253 254 255 256 257 258 260 262 263 266 268 270 272 271 271 272 274 276 277 277 276 275 275 277 281 283 284 284 281 273 271 273 266 271 278 271 273 276 269 268 269 269 272 270 269 272 272 272
86 110 128 148 209 216 288 296 335 14 107 259 345 338 282 272 271 273 278 273 271 279 277 277 280 277 277 276 275 273 267 264 260 256 253 250 249 249 250 249 248 249 248 247 246 245 247 249 250 252 252 252 252 254 255 258 262 264 267 268 270 271 271 272 272 273 272 271 272 272 271 268 266 267 270 272 274 278 280 280 280 277 280 281 270 272 279 274 267 267 271 274 271 271 271 271 277
91 111 132 175 228 157 204 265 329 9 77 264 286 303 285 293 304 294 292 283 289 303 292 284 286 285 289 289 282 278 272 266 256 247 244 243 244 246 248 248 247 246 244 243 241 242 243 245 247 247 246 246 246 249 251 255 258 261 264 266 267 267 268 269 269 269 267 266 265 266 269 271 271 270 270 272 274 280 284 279 278 280 281 281 276 276 284 281 266 266 277 278 273 271 268 272 281
64 144 142 167 193 170 192 207 343 356 31 26 42 337 297 328 340 300 312 336 336 360 19 27 24 344 318 307 290 279 277 276 260 225 222 229 233 237 241 243 244 242 239 236 234 234 236 237 240 240 241 241 242 245 249 252 255 257 260 262 264 265 266 267 266 267 268 270 272 273 276 277 278 278 274 272 272 276 277 274 274 275 276 276 272 272 282 285 272 268 277 277 273 269 267 277 281
215 210 175 170 166 153 141 93 70 46 10 356 32 17 291 321 325 272 305 346 340 7 37 46 46 45 41 27 7 295 275 273 132 130 173 207 219 227 231 232 234 234 232 232 231 231 231 232 235 237 239 241 242 245 248 252 254 256 259 261 264 267 268 269 271 275 277 277 280 281 281 280 279 279 277 274 272 270 268 269 273 276 278 277 273 272 277 280 274 271 275 275 274 273 272 277 275
173 221 169 146 131 125 129 117 87 97 206 328 45 115 252 316 312 269 310 340 328 351 26 36 41 46 51 58 70 85 94 97 101 102 107 123 152 185 199 203 211 215 220 226 229 231 231 232 235 237 239 241 244 246 247 250 254 257 261 265 268 269 270 275 279 281 281 280 279 277 275 276 277 277 277 277 276 275 273 270 271 272 273 274 276 277 277 277 276 276 277 275 274 275 275 275 272
188 210 131 127 122 128 139 113 94 168 213 325 19 94 185 301 280 275 317 350 344 353 4 20 35 45 52 64 78 89 94 95 95 95 94 95 103 112 123 140 152 159 174 189 200 212 219 223 227 231 234 237 240 242 244 249 255 259 264 266 267 269 273 280 282 281 281 279 277 276 275 275 275 276 276 277 276 277 276 274 272 271 271 273 274 276 278 282 284 280 278 278 277 275 275 278 278
236 195 122 124 120 121 120 96 94 36 42 295 334 37 148 265 275 305 348 18 338 348 354 6 25 42 56 70 80 87 91 92 91 90 90 89 90 93 96 100 103 107 112 118 128 138 151 167 180 191 200 209 218 227 235 243 251 256 261 266 270 276 282 284 283 282 282 281 279 280 279 278 279 279 278 278 277 276 274 273 272 270 269 268 269 271 275 279 280 277 276 279 278 275 274 279 280
169 147 99 85 76 80 83 86 103 53 47 233 286 15 157 265 284 307 1 79 242 262 307 350 29 52 65 76 83 87 89 90 90 89 89 88 88 89 89 92 95 97 99 101 104 107 110 114 118 121 124 130 141 159 197 231 252 263 271 278 283 287 289 287 285 284 282 282 283 282 282 282 282 281 279 278 276 274 273 271 270 267 265 264 264 266 269 272 272 273 275 278 278 276 274 276 277
139 121 81 70 42 39 53 51 83 68 326 248 264 322 122 272 284 262 227 204 190 179 148 9 48 67 76 83 87 89 90 91 91 90 89 88 87 87 88 90 90 90 92 93 93 95 97 99 101 101 103 103 103 103 95 20 301 299 298 297 298 298 295 292 289 289 288 285 285 284 284 283 281 280 279 277 275 273 272 270 267 266 264 262 261 260 262 265 267 268 270 270 270 272 274 276 276
117 97 98 86 13 10 28 0 42 96 251 260 274 300 160 214 266 277 267 261 206 160 127 69 54 70 80 86 89 90 92 93 94 93 91 90 89 88 88 88 87 87 88 87 87 88 89 90 90 90 91 89 84 80 69 52 34 10 351 336 329 321 312 306 302 300 296 291 289 288 286 283 282 281 280 278 278 278 275 270 266 264 261 260 260 259 258 258 261 263 265 265 264 266 269 272 272
77 107 115 98 21 16 12 315 352 192 237 272 286 270 201 231 250 263 268 261 227 201 170 75 58 81 87 89 91 91 92 94 94 93 91 89 87 85 85 84 84 85 84 86 86 87 88 88 88 89 89 88 86 82 78 74 67 57 40 19 359 343 329 318 312 308 303 298 294 290 287 285 284 282 281 281 281 280 276 272 269 266 264 263 262 262 260 257 255 256 258 260 263 264 265 267 268
135 142 135 132 118 93 234 259 290 248 251 288 282 266 243 266 265 240 235 237 226 224 232 282 78 96 96 97 94 91 92 93 92 91 88 86 83 82 81 80 79 79 80 84 89 91 92 92 91 90 88 87 86 83 80 76 70 62 50 35 21 7 357 346 334 325 316 309 303 298 295 293 291 288 287 286 284 281 278 276 275 272 270 268 266 265 263 262 259 255 253 253 255 259 261 265 268
178 171 127 147 156 145 195 211 188 219 256 297 292 266 186 209 257 223 230 254 252 226 214 188 149 121 112 107 98 94 94 92 90 89 86 83 81 79 77 75 74 74 75 80 86 89 89 87 85 81 78 74 70 67 62 56 49 43 34 26 19 11 6 1 354 346 337 327 316 309 304 300 297 295 292 290 287 284 282 280 279 277 276 275 273 271 269 268 267 265 263 260 259 259 258 259 262
238 118 106 163 183 137 137 174 170 165 134 298 259 234 216 214 267 276 275 278 258 195 193 175 152 138 126 114 102 98 97 93 90 87 83 81 78 74 69 66 65 66 68 71 75 79 76 70 65 58 55 50 45 43 39 35 29 23 17 11 4 359 356 353 351 348 343 339 331 320 313 305 300 296 293 291 287 285 284 283 282 281 282 281 280 279 278 276 275 274 272 271 270 269 265 262 262
160 117 167 209 158 114 114 151 57 85 144 258 219 242 293 309 272 305 324 174 100 130 181 175 156 144 131 115 103 101 99 94 90 86 81 77 71 65 60 55 53 51 52 56 58 59 51 40 30 26 25 22 19 17 16 14 10 6 1 356 351 348 346 343 341 339 336 335 331 325 321 314 308 302 297 293 290 288 288 286 284 284 284 284 285 285 285 285 284 282 280 278 278 276 273 271 269
123 170 195 177 114 98 110 123 21 45 213 276 291 227 287 298 232 322 79 162 154 103 170 167 155 145 133 117 106 103 99 95 91 85 80 74 68 64 59 54 49 41 38 37 37 37 31 18 4 360 359 359 359 358 357 355 353 352 348 346 345 342 342 340 337 336 333 330 326 323 323 321 318 314 309 303 299 296 293 290 289 288 287 287 287 287 287 287 286 285 285 284 284 282 279 278 276
105 173 161 116 131 162 106 127 140 108 217 276 308 276 254 207 216 254 184 185 195 183 170 159 155 148 137 122 111 107 103 98 92 86 81 77 74 72 66 61 56 46 37 27 24 21 15 5 357 350 346 349 350 348 347 344 343 343 342 343 343 342 343 342 340 340 336 332 328 324 322 322 322 321 318 315 311 306 301 297 294 292 291 290 289 288 287 286 284 284 284 284 285 283 280 280 280
48 114 125 77 124 161 158 146 159 167 184 239 313 325 254 228 213 198 198 195 178 165 166 166 159 151 139 126 116 111 106 101 94 89 86 84 81 76 71 69 62 55 47 30 16 3 358 1 359 353 350 351 351 349 348 347 346 346 345 345 344 344 345 345 345 345 344 342 338 334 331 329 329 326 322 320 318 315 308 302 298 294 292 290 288 287 285 285 283 283 284 285 285 283 281 281 281
106 136 164 174 75 117 157 89 112 139 152 177 233 293 266 246 212 198 202 194 177 167 162 171 164 151 138 126 121 115 110 105 99 95 93 89 85 78 72 68 61 57 48 31 18 1 359 2 358 358 358 356 358 2 3 2 3 2 358 356 353 351 350 349 349 350 350 349 347 344 343 342 341 337 333 329 324 320 315 309 304 299 295 292 289 288 286 284 283 282 283 283 283 283 282 282 282
162 176 184 173 141 122 147 237 271 119 133 164 166 244 270 255 205 212 217 195 190 180 165 164 165 153 136 128 126 120 114 111 107 106 104 97 91 84 77 73 68 60 45 37 30 14 6 2 3 8 3 359 3 9 14 15 14 11 6 3 358 353 350 347 347 346 344 344 342 341 340 340 340 340 339 336 333 329 324 319 314 309 305 301 298 296 293 290 288 286 286 285 284 283 282 281 281